Find Kinshachi 3

NORAD ID: 41339 Int'l Des: 2016-012 Owner: NAG/MHIME Country: J operational
LEOCIRCULAR

Live Position

Loading 3D Globe...

About Kinshachi 3

Description loading...

Upcoming Passes

Passes for default location (London). Set your location on the main map for personalized predictions.

Altitude History

Loading altitude history...

Two-Line Element Set

1 41339U 16012C 26106.14524909 .00002676 00000-0 12306-3 0 9995
2 41339 31.0060 16.4711 0008974 155.0282 205.0794 15.18043014558768
Epoch: Apr 16, 2026 • Age: 11 hours

Current Status

Altitude 522.1 km
Velocity 7.60 km/s
Sub-Earth Point -27.88°S, 106°W
Launch Date Feb 17, 2016
Age 10.1 years
Type other

Technical Details

Classification Payload
Mass 52.00 kg
Dry Mass 52.00 kg
Total Mass 52.00 kg
Length 0.60 m
Diameter 0.50 m
Span 0.60 m
Shape Box
Manufacturer NAG/MHIME
Phase Status In Orbit
Owner/State NAG/MHIME/J

Most Searched